Weather History for South Haven, MI

Change the Weather History Date:

Wednesday, May 15, 2013

  Actual Average (KBIV) Record (KBIV)
Temperature  
Mean Temperature 66 °F 58 °F  
Max Temperature 78 °F 68 °F 93 °F (1982)
Min Temperature 52 °F 48 °F 32 °F (1984)
Degree Days  
Heating Degree Days 0 8  
Month to date heating degree days 142  
Since 1 July heating degree days 6021  
Cooling Degree Days 0 1  
Month to date cooling degree days 9  
Year to date cooling degree days 13  
Growing Degree Days 16 (Base 50)    
Moisture  
Dew Point 48 °F    
Average Humidity 50    
Maximum Humidity 85    
Minimum Humidity 38    
Precipitation  
Precipitation 0.00 in 0.10 in 0.95 in (1974)
Month to date precipitation 1.65  
Year to date precipitation 11.06  
Sea Level Pressure  
Sea Level Pressure 29.75 in    
Wind  
Wind Speed 12 mph (WNW)    
Max Wind Speed 26 mph    
Max Gust Speed 38 mph    
Visibility 10 miles    
Events      
T = Trace of Precipitation, MM = Missing Value Source: NWS Daily Summary

Daily Weather History Graph

Daily Weather History Graph

Search for Another Location

Airport:

Trip Planner

Search our weather history database for the weather conditions in past years. The results will help you decide how hot, cold, wet, or windy it might be!

Date:

Astronomy

May. 15, 2013 Rise Set
Actual Time 6:23 AM EDT 9:00 PM EDT
Civil Twilight 5:51 AM EDT 9:32 PM EDT
Nautical Twilight 5:10 AM EDT 10:12 PM EDT
Astronomical Twilight 4:25 AM EDT 10:58 PM EDT
Moon 10:59 AM EDT (5/15) 12:45 AM EDT (5/15)
Length of Visible Light 15h 41m
Length of Day
14h 36m
Waxing Crescent, 26% of the Moon is Illuminated
May 15
Waxing Crescent
May 18
First Quarter
May 25
Full
May 31
Last Quarter
Jun 8
New

Hourly Weather History & Observations

Time (EDT) Temp. Dew Point Humidity Pressure Visibility Wind Dir Wind Speed Gust Speed Precip Events Conditions
12:15 AM 75.7 °F 51.4 °F 43% 29.66 in 10.0 mi SSW 12.7 mph - N/A   Clear
12:35 AM 76.5 °F 53.6 °F 45% 29.64 in 10.0 mi SSW 12.7 mph - N/A   Clear
12:55 AM 76.1 °F 54.5 °F 47% 29.64 in 10.0 mi SSW 11.5 mph 17.3 mph N/A   Clear
1:15 AM 76.5 °F 55.6 °F 48% 29.62 in 10.0 mi SSW 12.7 mph 18.4 mph N/A   Clear
1:35 AM 76.5 °F 55.4 °F 48% 29.60 in 10.0 mi South 9.2 mph - N/A   Clear
1:55 AM 77.0 °F 55.4 °F 47% 29.61 in 10.0 mi SW 13.8 mph 20.7 mph N/A   Clear
2:15 AM 78.1 °F 54.3 °F 44% 29.59 in 10.0 mi SW 21.9 mph 35.7 mph N/A   Clear
2:35 AM 78.4 °F 53.6 °F 42% 29.59 in 10.0 mi SW 24.2 mph 38.0 mph N/A   Clear
2:55 AM 78.8 °F 52.7 °F 40% 29.59 in 10.0 mi SW 23.0 mph 35.7 mph N/A   Clear
3:15 AM 78.8 °F 52.3 °F 40% 29.59 in 10.0 mi SW 20.7 mph 32.2 mph N/A   Clear
3:35 AM 77.9 °F 52.5 °F 41% 29.58 in 10.0 mi SW 21.9 mph 33.4 mph N/A   Clear
3:56 AM 77.0 °F 52.7 °F 43% 29.58 in 10.0 mi SW 23.0 mph 31.1 mph N/A   Clear
4:15 AM 76.3 °F 52.7 °F 44% 29.59 in 10.0 mi WSW 26.5 mph 34.5 mph N/A   Clear
4:35 AM 74.3 °F 52.9 °F 47% 29.60 in 10.0 mi SW 19.6 mph 34.5 mph N/A   Clear
4:55 AM 72.5 °F 52.7 °F 50% 29.60 in 10.0 mi WSW 19.6 mph 34.5 mph N/A   Clear
5:15 AM 70.0 °F 51.8 °F 52% 29.62 in 10.0 mi WSW 18.4 mph 26.5 mph N/A   Clear
5:36 AM 68.7 °F 51.1 °F 53% 29.64 in 10.0 mi WSW 17.3 mph 25.3 mph N/A   Clear
5:55 AM 66.7 °F 50.5 °F 56% 29.65 in 10.0 mi WSW 16.1 mph 24.2 mph N/A   Clear
6:15 AM 64.9 °F 50.0 °F 58% 29.66 in 10.0 mi WSW 13.8 mph 20.7 mph N/A   Clear
6:35 AM 63.9 °F 49.5 °F 59% 29.67 in 10.0 mi WSW 13.8 mph 27.6 mph N/A   Clear
6:55 AM 63.5 °F 49.5 °F 60% 29.69 in 10.0 mi WSW 12.7 mph 18.4 mph N/A   Clear
7:15 AM 65.1 °F 49.8 °F 58% 29.70 in 10.0 mi WSW 13.8 mph 21.9 mph N/A   Clear
7:35 AM 64.6 °F 50.0 °F 59% 29.71 in 10.0 mi West 8.1 mph 17.3 mph N/A   Clear
7:55 AM 65.3 °F 50.0 °F 58% 29.72 in 10.0 mi West 8.1 mph - N/A   Clear
8:16 AM 64.2 °F 49.5 °F 59% 29.72 in 10.0 mi West 5.8 mph - N/A   Clear
8:35 AM 64.6 °F 48.6 °F 56% 29.74 in 10.0 mi West 4.6 mph - N/A   Clear
8:55 AM 65.3 °F 47.3 °F 52% 29.75 in 10.0 mi WNW 8.1 mph - N/A   Clear
9:15 AM 65.3 °F 47.7 °F 53% 29.76 in 10.0 mi West 6.9 mph - N/A   Clear
9:35 AM 65.5 °F 47.1 °F 51% 29.77 in 10.0 mi WNW 9.2 mph - N/A   Clear
9:55 AM 65.7 °F 46.8 °F 50% 29.78 in 10.0 mi WNW 5.8 mph - N/A   Clear
10:15 AM 66.6 °F 45.1 °F 46% 29.78 in 10.0 mi NW 6.9 mph - N/A   Clear
10:35 AM 66.6 °F 44.4 °F 45% 29.78 in 10.0 mi NNW 9.2 mph 16.1 mph N/A   Clear
10:56 AM 66.7 °F 44.2 °F 44% 29.80 in 10.0 mi NNW 11.5 mph - N/A   Clear
11:15 AM 66.7 °F 43.5 °F 43% 29.81 in 10.0 mi NNW 9.2 mph 16.1 mph N/A   Clear
11:35 AM 67.8 °F 45.5 °F 45% 29.82 in 10.0 mi NNW 12.7 mph 18.4 mph N/A   Clear
11:55 AM 68.7 °F 45.1 °F 43% 29.83 in 10.0 mi NNW 13.8 mph 21.9 mph N/A   Clear
12:15 PM 69.1 °F 44.4 °F 41% 29.83 in 10.0 mi NW 11.5 mph 20.7 mph N/A   Clear
12:35 PM 68.5 °F 44.1 °F 41% 29.83 in 10.0 mi NNW 11.5 mph 20.7 mph N/A   Clear
12:55 PM 69.3 °F 45.5 °F 42% 29.84 in 10.0 mi North 11.5 mph 20.7 mph N/A   Clear
1:15 PM 68.9 °F 46.4 °F 44% 29.83 in 10.0 mi North 11.5 mph - N/A   Clear
1:35 PM 69.3 °F 46.6 °F 44% 29.82 in 10.0 mi North 12.7 mph - N/A   Clear
1:55 PM 69.8 °F 46.9 °F 44% 29.83 in 10.0 mi North 10.4 mph 21.9 mph N/A   Clear
2:15 PM 68.7 °F 47.1 °F 46% 29.84 in 10.0 mi North 11.5 mph - N/A   Clear
2:35 PM 68.4 °F 46.8 °F 46% 29.84 in 10.0 mi North 11.5 mph - N/A   Clear
2:55 PM 68.2 °F 47.1 °F 47% 29.84 in 10.0 mi NNW 12.7 mph 17.3 mph N/A   Clear
3:16 PM 69.1 °F 47.1 °F 45% 29.83 in 10.0 mi NNW 11.5 mph - N/A   Clear
3:35 PM 69.3 °F 46.8 °F 45% 29.84 in 10.0 mi North 10.4 mph - N/A   Clear
3:55 PM 70.5 °F 46.4 °F 42% 29.84 in 10.0 mi NNW 10.4 mph - N/A   Clear
4:15 PM 69.6 °F 46.8 °F 44% 29.83 in 10.0 mi NNW 9.2 mph - N/A   Clear
4:35 PM 69.4 °F 46.6 °F 44% 29.84 in 10.0 mi NW 9.2 mph - N/A   Clear
4:55 PM 70.2 °F 45.9 °F 42% 29.83 in 10.0 mi NNW 6.9 mph - N/A   Clear
5:15 PM 69.4 °F 45.9 °F 43% 29.83 in 10.0 mi NNW 6.9 mph - N/A   Clear
5:35 PM 70.2 °F 45.3 °F 41% 29.82 in 10.0 mi NW 4.6 mph - N/A   Clear
5:55 PM 69.8 °F 44.6 °F 40% 29.81 in 10.0 mi NW 4.6 mph - N/A   Clear
6:15 PM 69.4 °F 43.2 °F 39% 29.81 in 10.0 mi NW 5.8 mph - N/A   Clear
6:36 PM 68.2 °F 41.7 °F 38% 29.82 in 10.0 mi NNW 4.6 mph - N/A   Clear
6:55 PM 67.3 °F 43.3 °F 42% 29.82 in 10.0 mi NNW 4.6 mph - N/A   Clear
7:15 PM 66.2 °F 43.2 °F 43% 29.81 in 10.0 mi NNE 3.5 mph - N/A   Clear
7:35 PM 65.5 °F 42.6 °F 43% 29.81 in 10.0 mi Calm Calm - N/A   Clear
7:55 PM 65.8 °F 42.4 °F 43% 29.81 in 10.0 mi Calm Calm - N/A   Clear
8:15 PM 65.5 °F 44.8 °F 47% 29.81 in 10.0 mi Calm Calm - N/A   Clear
8:35 PM 64.8 °F 47.8 °F 54% 29.80 in 10.0 mi SSE 3.5 mph - N/A   Scattered Clouds
8:55 PM 63.9 °F 44.4 °F 49% 29.80 in 10.0 mi Calm Calm - N/A   Scattered Clouds
9:15 PM 62.1 °F 49.8 °F 64% 29.81 in 10.0 mi Calm Calm - N/A   Clear
9:35 PM 60.4 °F 48.4 °F 64% 29.82 in 10.0 mi Calm Calm - N/A   Clear
9:55 PM 58.5 °F 48.6 °F 70% 29.83 in 10.0 mi Calm Calm - N/A   Clear
10:15 PM 57.7 °F 48.6 °F 71% 29.83 in 10.0 mi Calm Calm - N/A   Clear
10:35 PM 55.9 °F 49.3 °F 78% 29.83 in 10.0 mi Calm Calm - N/A   Clear
10:55 PM 54.9 °F 48.2 °F 78% 29.83 in 10.0 mi Calm Calm - N/A   Clear
11:16 PM 53.6 °F 48.6 °F 83% 29.83 in 10.0 mi Calm Calm - N/A   Clear
11:35 PM 53.6 °F 48.4 °F 82% 29.84 in 10.0 mi Calm Calm - N/A   Clear
11:55 PM 52.7 °F 48.2 °F 85% 29.84 in 10.0 mi Calm Calm - N/A   Clear